Louisville, KY

1:56 AM EDT on September 26, 2016 (GMT -0400)
Bowman

Weather History for KLOU - April, 2013

Change the Weather History Date:

Thursday, April 25, 2013

  Actual Average Record
Temperature  
Mean Temperature 48 °F 60 °F  
Max Temperature 62 °F 70 °F 88 °F (1989)
Min Temperature 34 °F 50 °F 34 °F (2013)
Degree Days  
Heating Degree Days 17 6  
Month to date heating degree days 238 242  
Since 1 July heating degree days 4231 4165  
Cooling Degree Days 0 1  
Month to date cooling degree days 37 25  
Year to date cooling degree days 37 29  
Moisture  
Dew Point 34 °F    
Average Humidity 66    
Maximum Humidity 96    
Minimum Humidity 36    
Precipitation  
Precipitation T in 0.16 in 1.54 in (1975)
Month to date precipitation 3.59 3.24  
Year to date precipitation 14.43 13.96  
Sea Level Pressure  
Sea Level Pressure 30.33 in    
Wind  
Wind Speed 6 mph (WSW)    
Max Wind Speed 17 mph    
Max Gust Speed 23 mph    
Visibility 9 miles    
Events      
T = Trace of Precipitation, MM = Missing Value Source: NWS Daily Summary

Daily Weather History Graph

Daily Weather History Graph

Search for Another Location

Airport or City:

Trip Planner

Search our weather history database for the weather conditions in past years. The results will help you decide how hot, cold, wet, or windy it might be!

Date:

Astronomy

Apr. 25, 2013 Rise Set
Actual Time 6:53 AM EDT 8:28 PM EDT
Civil Twilight 6:25 AM EDT 8:56 PM EDT
Nautical Twilight 5:51 AM EDT 9:30 PM EDT
Astronomical Twilight 5:15 AM EDT 10:06 PM EDT
Moon 8:40 PM EDT (4/25) 6:35 AM EDT (4/25)
Length of Visible Light 14h 31m
Length of Day
13h 35m
Full, 100% of the Moon is Illuminated
Apr 25
Full
Apr 25
Full
May 2
Last Quarter
May 9
New
May 18
First Quarter

Hourly Weather History & Observations

Time (EDT) Temp. Windchill Dew Point Humidity Pressure Visibility Wind Dir Wind Speed Gust Speed Precip Events Conditions
12:53 AM 37.9 °F - 35.1 °F 89% 30.30 in 9.0 mi Calm Calm - N/A   Clear
1:53 AM 37.9 °F - 36.0 °F 93% 30.31 in 10.0 mi Calm Calm - N/A   Clear
2:53 AM 37.0 °F - 35.1 °F 93% 30.29 in 9.0 mi Calm Calm - N/A   Clear
3:53 AM 35.1 °F - 33.1 °F 92% 30.29 in 6.0 mi Calm Calm - N/A   Clear
4:53 AM 35.1 °F - 33.1 °F 92% 30.30 in 8.0 mi Calm Calm - N/A   Clear
5:53 AM 35.1 °F - 32.0 °F 89% 30.31 in 8.0 mi Calm Calm - N/A   Clear
6:53 AM 34.0 °F - 32.0 °F 92% 30.32 in 10.0 mi Calm Calm - N/A   Clear
7:53 AM 36.0 °F 33.3 °F 34.0 °F 93% 30.33 in 6.0 mi South 3.5 mph - N/A   Clear
8:53 AM 42.1 °F 37.7 °F 37.0 °F 82% 30.36 in 10.0 mi WSW 6.9 mph - N/A   Clear
9:53 AM 46.9 °F - 36.0 °F 66% 30.34 in 10.0 mi South 8.1 mph - N/A   Clear
10:53 AM 50.0 °F - 34.0 °F 54% 30.35 in 10.0 mi South 8.1 mph 16.1 mph N/A   Clear
11:53 AM 53.1 °F - 35.1 °F 50% 30.35 in 10.0 mi WSW 8.1 mph 18.4 mph N/A   Clear
12:53 PM 55.9 °F - 34.0 °F 44% 30.34 in 10.0 mi West 9.2 mph - N/A   Clear
1:53 PM 57.9 °F - 37.0 °F 46% 30.32 in 10.0 mi Variable 5.8 mph - N/A   Clear
2:53 PM 59.0 °F - 35.1 °F 41% 30.32 in 10.0 mi West 6.9 mph - N/A   Scattered Clouds
3:53 PM 59.0 °F - 34.0 °F 39% 30.30 in 10.0 mi West 12.7 mph 20.7 mph N/A   Mostly Cloudy
4:53 PM 60.1 °F - 35.1 °F 39% 30.30 in 10.0 mi WNW 13.8 mph 18.4 mph 0.00 in   Mostly Cloudy
5:53 PM 61.0 °F - 33.1 °F 35% 30.30 in 10.0 mi West 15.0 mph 23.0 mph N/A   Scattered Clouds
6:53 PM 60.1 °F - 33.1 °F 36% 30.32 in 10.0 mi West 12.7 mph 17.3 mph N/A   Mostly Cloudy
7:53 PM 57.9 °F - 32.0 °F 37% 30.33 in 10.0 mi WNW 8.1 mph - N/A   Clear
8:53 PM 55.9 °F - 30.9 °F 39% 30.33 in 10.0 mi NW 8.1 mph - N/A   Clear
9:53 PM 53.1 °F - 28.9 °F 40% 30.37 in 10.0 mi NW 5.8 mph - N/A   Clear
10:53 PM 51.1 °F - 30.0 °F 44% 30.39 in 10.0 mi Calm Calm - N/A   Clear
11:53 PM 46.9 °F - 32.0 °F 56% 30.39 in 10.0 mi Calm Calm - N/A   Clear